Location: Seattle
(47.6064°N, 122.3308°W)
Time: 13:56:06
(UTC-08:00)

SR - Pass Details

Date: 01 December 2020
Orbit: 575 x 880 km, 66.7° (Epoch: 23 January)

Event Time Altitude Azimuth Distance (km) Brightness Sun altitude
Rises 19:53:14 0° 265° (W) 2,870 ? -35.2°
Reaches altitude 10° 19:56:06 10° 286° (WNW) 2,014 ? -35.7°
Enters shadow 19:57:59 16° 310° (NW) 1,679 ? -36.0°
